Location: Rostock
(54.0884°N, 12.1234°E)
Time: 08:18:09
(UTC+01:00)

ISS - Pass Details

Date: 13 November 2017
Orbit: 402 x 407 km, 51.6° (Epoch: 22 November)

Event Time Altitude Azimuth Distance (km) Brightness Sun altitude
Exits shadow 06:35:12 - 256° (WSW) 1,531 -1.4 -8.9°
Reaches altitude 10° 06:35:29 10° 252° (WSW) 1,457 -1.5 -8.9°
Maximum altitude 06:37:28 15° 215° (SW) 1,180 -1.6 -8.6°
Drops below altitude 10° 06:39:27 10° 177° (S) 1,452 -0.7 -8.3°
Sets 06:42:07 0° 153° (SSE) 2,307 0.8 -8.0°
